Back to catalog

SSA

AliveMilitaryLEO
NORAD 13844·PAYLOAD·🇺🇸 United States

Launched Feb 9, 1983 from Vandenberg Space Force Base

Loading…

Next Passes (next 24 hours)

TLE

FreshSource: Space-Track

Epoch: Sep 14, 2026, 09:12 UTC

1 13844U 83008E   26257.38351767  .00001531  00000-0  24063-3 0  9999
2 13844  63.3114 142.8267 0704009 136.4675 229.4206 13.78088111371141

Track SSA in real time with AllMySat

Download on the App Store